Tracking 17154 objects as of 31-July-2015
HD Live streaming from Space Station

DEMETER

Track DEMETER now!
10-day predictions
DEMETER is classified as:


NORAD ID: 28368
Int'l Code: 2004-025C
Perigee: 655.6 km
Apogee: 657.2 km
Inclination: 97.7 °
Period: 97.7 minutes
Semi major axis: 7027 km
RCS: 0.9257 m2 (medium)
Launch date: June 29, 2004
Source: France (FR)

Study of ionosperic perturbations in relation with seismic activity; global study of the Earth electromagnetic environment.
Your satellite tracking list
Your tracking list is empty





NASA's NSSDC Master Catalog

Two Line Element Set (TLE):
1 28368U 04025C   15211.13841041  .00000420  00000-0  71563-4 0  9992
2 28368 097.7281 232.1462 0001124 040.2975 319.8310 14.73703653594268

Source of the keplerian elements: AFSPC

N2YO: 248